EDT,Max TemperatureF,Mean TemperatureF,Min TemperatureF,Max Dew PointF,MeanDew PointF,Min DewpointF,Max Humidity, Mean Humidity, Min Humidity, Max Sea Level PressureIn, Mean Sea Level PressureIn, Min Sea Level PressureIn, Max VisibilityMiles, Mean VisibilityMiles, Min VisibilityMiles, Max Wind SpeedMPH, Mean Wind SpeedMPH, Max Gust SpeedMPH,PrecipitationIn, CloudCover, Events, WindDirDegrees
2013-6-1,85,77,68,67,64,61,87,67,47,30.12,30.07,30.00,10,10,10,15,8,30,0.00,4,,195
2013-6-2,77,72,66,72,68,64,100,87,73,30.02,29.96,29.90,10,10,10,15,6,18,1.22,7,Rain-Thunderstorm,205
2013-6-3,84,75,65,71,67,64,100,81,62,29.96,29.90,29.84,10,10,10,15,2,23,T,5,Rain-Thunderstorm,174
2013-6-4,85,76,66,70,65,62,100,76,51,30.05,29.98,29.92,10,10,10,14,7,22,0.00,3,,36
2013-6-5,83,76,68,70,67,64,97,81,65,30.10,30.02,29.95,10,9,2,18,7,22,0.66,8,Rain-Thunderstorm,59
2013-6-6,76,71,65,71,68,64,100,91,82,29.99,29.86,29.79,10,7,1,16,4,22,0.41,8,Rain,203
2013-6-7,84,76,67,71,68,66,100,83,65,29.82,29.72,29.65,10,8,1,15,5,18,0.40,6,Rain-Thunderstorm,310
2013-6-8,83,75,66,68,66,63,100,76,51,30.07,29.93,29.82,10,8,2,14,4,18,0.00,4,,205
2013-6-9,85,76,67,70,68,64,100,83,65,30.14,30.08,30.04,10,6,0,26,4,36,3.23,6,Fog-Rain-Thunderstorm,166
2013-6-10,78,73,68,71,68,66,100,85,69,30.06,29.98,29.91,10,8,2,22,11,31,0.36,6,Rain-Thunderstorm,206
2013-6-11,90,80,69,71,67,60,100,70,40,29.99,29.96,29.91,10,8,2,15,5,18,0.16,5,Rain,233
2013-6-12,93,80,66,74,69,64,93,67,41,30.00,29.95,29.90,10,10,9,13,5,22,0.00,0,,247
2013-6-13,91,80,68,73,70,67,97,72,47,29.88,29.78,29.70,10,10,6,24,9,33,0.04,0,Thunderstorm,247
2013-6-14,86,74,62,67,57,54,90,64,37,30.02,29.89,29.78,10,10,10,15,5,23,0.00,0,,13
2013-6-15,84,72,60,61,58,54,90,67,43,30.13,30.07,30.03,10,10,10,13,4,17,0.00,1,,205
2013-6-16,86,75,64,67,63,60,93,69,44,30.14,30.07,30.00,10,10,10,14,7,21,0.00,0,,214
2013-6-17,85,77,69,72,69,66,100,83,65,30.06,29.99,29.94,10,8,2,18,6,35,0.66,5,Rain-Thunderstorm,231
2013-6-18,81,75,68,75,70,68,100,85,69,29.99,29.88,29.78,10,7,1,25,7,30,1.93,7,Rain-Thunderstorm,229
2013-6-19,83,75,67,66,65,64,90,74,58,30.09,29.98,29.89,10,10,2,10,4,14,0.04,4,Rain,43
2013-6-20,83,75,66,67,65,63,93,74,54,30.21,30.16,30.08,10,9,6,15,5,20,0.00,2,,58
2013-6-21,84,75,66,65,63,61,93,69,44,30.26,30.20,30.15,10,9,6,12,5,15,0.00,2,,43
2013-6-22,86,76,65,67,63,61,87,68,48,30.21,30.16,30.10,10,10,9,12,4,15,0.00,1,,46
2013-6-23,87,78,69,70,68,67,97,76,55,30.23,30.15,30.09,10,10,4,24,4,30,0.03,4,Rain-Thunderstorm,63
2013-6-24,88,78,68,72,69,66,100,78,55,30.22,30.16,30.08,10,9,1,15,6,18,T,4,Rain-Thunderstorm,223
2013-6-25,90,80,70,73,69,66,100,75,50,30.15,30.08,30.02,10,9,6,17,7,30,0.19,4,Rain-Thunderstorm,212
2013-6-26,90,81,71,72,70,69,93,73,52,30.07,29.98,29.91,10,9,6,15,7,18,T,2,Thunderstorm,233
2013-6-27,91,81,71,75,72,66,100,78,56,29.97,29.84,29.73,10,8,4,21,8,28,0.10,4,Rain-Thunderstorm,234
2013-6-28,94,82,69,73,70,66,97,71,44,29.82,29.71,29.60,10,7,1,25,6,33,T,1,Thunderstorm,241
2013-6-29,88,79,70,70,68,62,100,72,43,29.71,29.66,29.62,10,9,6,17,7,21,0.00,3,,217
2013-6-30,84,77,70,73,69,66,97,76,55,29.85,29.76,29.68,10,10,8,10,5,14,T,5,Rain,184